Location: Berbisdorf
(50.7638°N, 12.9442°E)
Time: 02:41:50
(UTC+00:00)

BREEZE-M DEB (TANK) - Pass Details

Date: 08 October 2020
Orbit: 333 x 12040 km, 49.7° (Epoch: 19 October)

Event Time Altitude Azimuth Distance (km) Brightness Sun altitude
Rises 22:31:14 0° 112° (ESE) 16,848 9.4 -45.3°
Reaches altitude 10° 23:08:34 10° 93° (E) 15,899 9.4 -45.5°
Maximum altitude 23:27:44 12° 81° (E) 14,628 9.4 -45.1°
Drops below altitude 10° 23:43:35 10° 69° (ENE) 13,274 9.4 -44.5°
Sets 00:03:27 0° 49° (NE) 11,500 9.5 -43.4°
